Tracking 30106 objects as of 23-Jan-2025
HD Live streaming from Space Station
objects crossing your sky now

NAVSTAR 75 (USA 265)

Track NAVSTAR 75 (USA 265) now!
NAVSTAR 75 (USA 265) is classified as:


NORAD ID: 41019
Int'l Code: 2015-062A
Perigee: 19,915.7 km
Apogee: 20,462.4 km
Inclination: 56.6 °
Period: 718.0 minutes
Semi major axis: 26560 km
RCS: Unknown
Launch date: October 31, 2015
Source: United States (US)
Launch site: AIR FORCE EASTERN TEST RANGE (AFETR)
PRN: 10

NAVSTAR 75 (USA 265), also known as GPS IIF-11 is a navigation satellite deployed in Plane E of the GPS constellation.
Your satellite tracking list
Your tracking list is empty




NASA's NSSDC Master Catalog

Two Line Element Set (TLE):
1 41019U 15062A   25022.23749996 -.00000053  00000-0  00000-0 0  9998
2 41019  56.5834  50.5667 0102926 227.7272 131.4486  2.00566770 67582
Source of the keplerian elements: AFSPC